sat.trackr.live / text

‹ back to catalog

STARLINK-32565

NORAD 62182 · 2024-225V

PAYLOAD ACTIVE UNKNOWN

§ Identity

Operator
Country
US
Launch date
2024-11-30
Launch site
AFWTR
Launch vehicle
Mass (kg)
RCS (m²)

Purposes: comms

External: N2YO · Heavens-Above · Gunter

§ Orbital elements

Epoch: 2026-05-24T22:54:35.483904Z

Period
96.11 min
Inclination
70.0018°
Eccentricity
0.0002058
Mean motion
14.98338166 rev/d
Perigee alt
570.6 km
Apogee alt
573.5 km
Semi-major
6,950.2 km
B*
2.5877e-4
RAAN
331.9726°
Arg perigee
270.5348°
Mean anomaly
89.5576°
Rev number
8,130

§ Raw data

STARLINK-325651 62182U 24225V   26144.95457736  .00002997  00000+0  25877-3 0  99952 62182  70.0018 331.9726 0002058 270.5348  89.5576 14.98338166 81303

JSON: /api/v1/satellites/62182 · /tle

For live sub-satellite position, see the globe view (requires WebGL).

§ Visibility from observer

Set your observer location to see the next 7 days of passes ≥ 10°. The values pass through the URL so the page stays shareable.

No JS? Fill the form by hand. The geolocation button needs JavaScript.